This demonstration page uses our WeatherBlox Daily Observations layout. Learn more.

Left ArrowRight Arrow

Hourly Observations for May 8, 2015

Temp ( °F °C ) Dew Point ( °F °C ) Humidity (%) Winds ( mph kmh ) Pressure ( in mb ) Visibility ( mi km ) Precip ( " mm )
12:18 am 00:18 Cloudy 59 15 52 11 77 77 NNW 12 19 29.97 1015 10 16 0.00 0.00
12:52 am 00:52 Cloudy 58 14.4 51 10.6 78 78 NNW 15 24 29.94 1014 10 16 0.00 0.00
1:52 am 01:52 Cloudy 57 13.9 51 10.6 81 81 NNW 9 15 29.95 1014 10 16 0.00 0.00
2:08 am 02:08 Cloudy 57 14 52 11 82 82 NW 10 17 29.97 1015 10 16 0.00 0.00
2:52 am 02:52 Cloudy 55 12.8 50 10 83 83 NW 14 22 29.94 1014 10 16 0.00 0.00
3:52 am 03:52 Cloudy 54 12.2 49 9.4 83 83 NNW 10 17 29.95 1014 10 16 0.00 0.00
4:52 am 04:52 Cloudy 54 12.2 48 8.9 80 80 NNW 13 20 29.96 1015 10 16 0.00 0.00
5:52 am 05:52 Cloudy 54 12.2 48 8.9 80 80 NNW 10 17 29.99 1016 10 16 0.00 0.00
6:52 am 06:52 Cloudy 54 12.2 48 8.9 80 80 N 8 13 30.01 1016 10 16 0.00 0.00
7:52 am 07:52 Cloudy 54 12.2 48 8.9 80 80 N 10 17 30.03 1017 10 16 0.00 0.00
8:52 am 08:52 Cloudy 54 12.2 47 8.3 77 77 NNW 14 22 30.04 1017 10 16 0.00 0.00
9:52 am 09:52 Cloudy 55 12.8 48 8.9 77 77 N 14 22 30.05 1018 10 16 0.00 0.00
10:52 am 10:52 Cloudy 55 12.8 48 8.9 77 77 N 12 19 30.05 1018 10 16 0.00 0.00
11:52 am 11:52 Cloudy 56 13.3 49 9.4 77 77 NNW 9 15 30.06 1018 10 16 0.00 0.00
12:52 pm 12:52 Cloudy 58 14.4 49 9.4 72 72 N 10 17 30.05 1018 10 16 0.00 0.00
1:52 pm 13:52 Cloudy 59 15 50 10 72 72 NNW 8 13 30.04 1017 10 16 0.00 0.00
2:52 pm 14:52 Cloudy 60 15.6 51 10.6 72 72 NNW 9 15 30.03 1017 10 16 0.00 0.00
3:52 pm 15:52 Cloudy 60 15.6 52 11.1 75 75 NNW 9 15 30.02 1017 10 16 0.00 0.00
4:52 pm 16:52 Cloudy 61 16.1 51 10.6 70 70 NNW 7 11 30.03 1017 10 16 0.00 0.00
5:35 pm 17:35 Cloudy 62 16.7 52 11.1 70 70 N 9 15 30.03 1017 10 16 0.00 0.00
5:52 pm 17:52 Cloudy 61 16.1 51 10.6 70 70 NNW 12 19 30.02 1017 10 16 0.00 0.00
6:52 pm 18:52 Cloudy 61 16.1 50 10 67 67 N 13 20 30.01 1016 10 16 0.00 0.00
7:52 pm 19:52 Cloudy 60 15.6 50 10 70 70 NNE 9 15 30.03 1017 10 16 0.00 0.00
8:52 pm 20:52 Cloudy 58 14.4 50 10 75 75 NNE 12 19 30.04 1017 10 16 0.00 0.00
9:52 pm 21:52 Cloudy 57 13.9 49 9.4 74 74 NNE 10 17 30.06 1018 10 16 0.00 0.00
10:15 pm 22:15 Cloudy 56 13.3 49 9.4 77 77 NNE 9 15 30.09 1019 10 16 0.00 0.00
10:52 pm 22:52 Cloudy 56 13.3 49 9.4 77 77 N 7 11 30.08 1019 10 16 0.00 0.00
11:52 pm 23:52 Cloudy 55 12.8 49 9.4 80 80 N 7 11 30.07 1018 10 16 0.00 0.00

Powered by AerisWeather